Theta_e
319 318 323 325 326 326 327 328 329 329 324 325 327 325 321 322 321 319 324 321 317 318 315 315 314 313 318 319 319 320 321 323 327 323 325 331 321 322 325 322 323 322 325 329 333 337 337 338 339 339 339 340 340 339 340 339 339 339 336 335 334 333 331 331 332 333 337 339 339 339 339 338 338 338 337 337 336 334 334 334 335 335 336 337 338 338 338 338 337 337 336 335 334 332 331 332 332
319 321 324 325 324 323 327 329 331 331 327 326 325 326 323 320 320 323 329 325 321 315 312 316 316 315 318 319 317 318 320 320 322 322 323 321 322 325 324 324 323 322 325 328 333 337 337 337 338 338 338 340 340 339 339 339 339 339 337 336 336 335 332 333 333 334 337 338 339 339 339 339 338 338 337 337 337 336 336 336 336 336 336 337 338 338 338 337 336 336 335 333 332 331 331 332 332
322 325 326 325 324 324 331 329 329 329 324 322 323 325 321 320 325 327 328 324 320 312 312 317 316 317 318 320 318 319 322 322 320 324 324 318 325 327 324 325 322 323 326 327 333 336 336 335 337 338 337 339 338 338 339 338 338 338 337 337 337 335 334 335 336 337 338 338 339 339 339 339 338 338 337 337 336 336 336 336 336 336 337 337 337 338 337 336 335 335 334 333 331 330 331 331 331
325 326 325 326 326 330 339 332 332 330 320 322 320 322 325 327 329 327 324 320 317 312 315 318 317 317 317 321 319 318 321 323 319 323 327 319 324 327 324 325 322 324 326 328 332 334 335 334 336 336 336 337 336 337 337 337 338 337 337 337 336 336 336 337 339 339 339 339 339 339 339 338 338 337 336 335 334 334 335 335 335 335 336 336 336 336 335 334 334 334 333 332 330 330 330 329 329
325 324 321 326 329 330 334 327 330 327 320 325 320 322 333 332 328 327 323 319 317 314 316 317 318 315 314 319 318 320 323 321 316 316 322 319 322 326 325 325 323 325 327 329 330 333 334 333 335 334 336 336 335 336 335 336 337 337 337 337 336 336 337 338 339 339 339 339 338 338 338 337 337 336 334 334 333 333 333 333 333 334 334 334 334 334 334 332 332 333 332 331 330 329 328 326 326
325 322 321 321 321 322 327 323 326 326 321 323 321 325 330 326 325 323 320 319 317 314 314 315 316 314 314 318 315 318 321 318 317 316 318 319 322 325 326 325 325 326 328 330 330 332 332 333 333 334 336 334 335 335 335 336 335 336 336 336 337 337 338 338 339 339 338 338 338 337 337 337 336 335 333 332 331 331 331 331 331 332 332 332 331 331 331 330 329 330 330 329 327 326 324 322 321
323 323 325 323 321 322 329 329 328 330 324 319 322 325 322 322 321 319 319 318 318 314 312 314 314 313 316 316 313 315 315 315 317 318 318 319 321 324 327 325 327 326 328 329 329 331 332 332 332 334 335 332 334 335 335 335 335 336 336 336 337 337 337 338 338 338 338 338 337 336 336 335 335 333 332 331 329 329 329 330 330 330 330 330 329 330 329 328 327 326 325 323 322 319 317 315 313
321 325 327 330 330 326 330 331 329 329 324 318 320 324 322 322 319 317 319 318 317 316 312 315 314 315 317 312 315 316 311 314 315 317 318 318 319 324 328 326 328 327 328 330 329 331 330 331 331 333 333 332 335 335 335 334 335 336 336 336 336 338 337 337 337 337 336 336 335 334 334 333 333 332 330 329 327 327 328 328 329 328 328 328 328 328 327 326 324 321 319 315 312 309 307 305 303
319 321 324 330 328 325 329 328 324 323 324 323 321 324 322 320 319 318 319 319 317 316 315 316 315 316 316 312 317 317 312 313 314 315 318 318 319 323 328 327 329 328 329 330 330 332 330 330 329 330 332 333 334 334 335 335 335 336 336 337 337 337 336 336 337 336 335 334 333 332 332 331 331 330 328 327 326 327 326 326 327 327 326 326 326 326 325 324 320 315 311 307 303 301 299 299 299
319 320 322 327 325 323 326 323 321 322 324 324 321 320 318 316 317 318 319 318 316 317 315 313 312 314 316 315 318 316 314 314 313 315 317 318 318 321 328 327 329 328 329 330 331 331 330 330 329 330 332 332 333 333 334 334 335 335 335 336 336 336 335 335 334 334 333 333 332 331 330 330 330 328 326 325 325 326 324 325 326 325 324 324 325 324 323 319 313 307 303 300 299 299 299 299 299
324 327 326 326 324 322 322 322 323 324 321 319 320 320 317 315 314 317 318 317 316 316 313 311 313 316 315 316 320 316 312 314 313 315 316 318 317 319 326 328 329 329 329 330 331 332 331 330 330 331 331 331 332 332 333 333 334 334 334 334 334 334 334 334 333 332 332 331 331 330 329 329 328 326 324 324 323 323 323 323 323 323 323 323 321 319 316 311 305 301 299 299 299 299 299 299 299
325 331 336 331 326 324 322 325 324 324 323 320 325 321 315 315 316 319 320 318 317 316 315 313 315 317 316 321 323 314 311 313 313 315 316 317 317 318 324 328 328 329 330 330 331 331 331 331 331 331 332 331 331 332 332 331 332 332 333 333 333 333 332 331 331 332 330 329 329 328 327 327 326 324 323 323 322 322 322 319 316 317 318 317 314 311 308 303 300 299 299 299 299 299 299 299 299
331 331 335 327 324 326 323 327 328 327 328 327 326 317 310 316 321 321 322 320 317 318 317 313 314 315 317 322 322 317 313 312 313 315 316 317 317 317 322 327 328 329 330 331 331 331 331 332 331 331 331 331 330 331 330 330 330 330 331 331 331 331 329 330 331 330 328 328 327 326 326 325 324 323 323 322 322 321 319 313 309 309 309 308 306 304 301 299 299 299 299 299 299 299 299 299 299
333 332 330 321 320 327 325 326 329 326 326 329 326 314 311 317 321 321 319 320 319 319 315 310 312 315 317 319 323 327 318 311 313 314 316 317 317 317 321 326 328 328 329 330 330 331 331 330 330 329 329 330 329 329 329 329 329 330 330 329 330 329 328 329 330 328 327 327 326 325 325 324 323 322 322 321 321 319 314 308 305 304 304 303 301 299 298 298 299 298 299 298 299 299 298 299 298
324 331 333 327 324 325 325 323 324 324 321 324 321 313 314 316 317 319 316 318 319 315 310 308 310 315 318 317 323 328 315 310 313 314 315 317 316 318 321 324 327 327 328 328 328 329 328 328 327 326 326 327 327 327 328 327 328 329 329 329 329 329 329 329 328 326 326 325 325 324 324 323 321 321 321 320 319 316 309 304 303 303 303 302 299 298 298 298 298 298 298 298 298 298 298 298 298
321 332 332 327 326 323 324 323 320 321 322 325 318 312 317 316 312 315 314 314 316 312 310 312 311 313 318 318 319 317 310 311 313 313 315 316 317 319 322 324 326 327 327 327 327 327 327 326 325 325 324 325 326 326 326 326 328 329 329 329 329 329 329 328 327 325 325 324 324 324 323 322 319 318 319 317 315 311 305 302 303 303 302 299 298 298 298 298 298 298 298 298 298 298 299 298 298
320 331 329 324 326 323 323 323 319 321 326 330 320 313 316 316 312 311 308 309 314 314 313 315 311 311 316 317 314 310 309 311 312 314 315 316 317 318 321 323 325 326 327 327 327 327 326 326 325 325 324 324 325 325 326 325 327 329 328 328 328 328 328 327 326 325 324 323 323 323 322 320 316 316 315 313 310 307 303 302 302 301 299 298 297 297 297 298 297 298 298 298 298 298 299 298 298
322 329 325 322 326 324 325 326 321 319 321 323 320 314 314 316 315 311 309 311 314 314 313 313 311 310 311 311 310 309 310 311 312 314 314 315 316 317 319 320 323 324 326 327 327 327 326 326 325 325 324 324 324 325 325 325 327 328 326 327 328 327 327 327 325 324 323 323 322 322 320 317 313 312 311 308 306 303 301 300 301 300 298 297 297 297 297 297 297 298 298 298 298 298 298 298 298
327 329 322 325 329 324 322 324 322 317 316 320 320 315 312 315 314 311 312 316 316 315 315 314 313 312 311 309 308 308 309 310 312 313 313 314 314 315 317 317 320 321 324 326 326 326 326 325 325 325 324 324 324 324 325 325 325 326 326 326 327 327 326 326 325 324 322 322 322 320 317 314 310 309 307 305 303 302 301 300 301 300 298 297 297 297 297 297 297 298 298 299 299 298 298 298 297
327 325 324 332 330 323 320 321 321 317 315 317 318 315 313 314 312 311 313 316 316 316 315 315 316 316 314 312 308 306 308 309 310 312 312 313 314 315 315 316 318 321 322 323 324 325 326 325 325 324 324 323 323 323 324 324 324 325 324 325 325 325 325 325 324 323 322 321 320 318 315 312 309 307 305 304 303 301 300 300 300 299 298 297 297 297 297 298 298 298 299 299 299 299 298 298 297
323 321 327 334 325 321 321 321 320 317 313 313 317 317 315 313 310 311 313 315 316 316 315 316 317 316 317 317 309 304 306 307 308 310 311 311 312 313 314 316 317 319 319 320 323 324 325 325 325 324 324 323 323 322 322 323 323 323 323 323 323 323 324 324 324 323 321 320 319 316 313 310 307 306 304 303 301 300 299 299 298 298 298 298 298 298 298 298 298 298 299 299 299 298 298 298 297
320 321 325 330 321 318 321 323 321 315 313 315 318 317 315 312 311 313 313 315 316 316 316 316 317 315 316 315 310 306 308 308 306 307 309 310 311 312 313 315 316 316 317 319 321 321 323 324 325 325 324 323 323 322 322 321 322 322 322 322 322 323 323 323 322 321 320 319 317 315 311 309 307 305 303 301 300 299 298 298 298 298 297 297 297 297 297 297 298 298 299 299 298 298 297 297 296
319 321 322 325 321 318 321 323 320 316 315 317 318 316 314 312 314 314 313 314 315 315 316 316 315 312 309 309 311 316 319 316 310 306 308 310 310 311 312 313 314 315 316 317 317 319 321 323 324 324 324 323 323 322 321 321 321 321 321 321 321 321 322 322 320 318 318 317 315 312 309 307 305 303 301 300 299 298 297 297 297 297 297 297 297 296 297 297 298 298 298 298 298 297 296 296 296
317 321 321 321 319 319 320 318 319 319 316 317 316 315 314 315 316 314 312 313 314 313 313 313 311 307 306 308 312 316 317 315 309 306 308 309 310 312 312 313 313 314 315 315 316 317 319 321 323 323 324 324 323 322 321 321 320 319 320 320 320 320 320 320 319 317 316 315 312 309 307 305 303 301 300 298 298 297 297 297 297 297 297 296 296 296 296 297 298 298 298 297 297 296 296 296 295
319 320 321 321 320 321 319 316 318 319 317 315 314 316 316 315 315 314 313 313 312 312 312 311 310 308 308 310 311 311 311 310 307 306 307 308 310 310 310 311 311 312 313 315 315 316 317 318 320 322 323 323 323 322 321 321 319 319 318 318 318 318 318 318 317 316 314 311 309 307 306 305 302 300 298 297 297 296 296 296 296 296 296 296 296 296 296 297 298 298 297 297 296 296 295 295 295
321 320 321 322 320 318 317 315 316 318 318 315 314 316 315 312 313 313 313 312 312 312 312 311 310 312 311 310 309 308 309 309 306 306 306 306 308 307 309 309 309 311 312 313 314 315 316 316 318 320 321 322 322 321 321 320 319 318 318 317 316 316 316 315 315 313 310 308 306 305 304 303 301 299 297 297 296 296 296 295 296 296 296 296 296 296 296 297 297 298 297 296 296 295 295 294 294
319 320 319 319 315 314 314 314 314 315 315 314 313 314 313 312 312 312 313 314 314 314 314 312 311 313 312 310 308 307 307 307 305 305 306 306 305 305 307 308 308 310 311 311 312 313 314 315 316 317 319 321 320 321 320 319 319 317 317 316 315 315 314 313 312 309 307 305 303 303 303 302 301 298 297 296 296 296 296 295 295 295 295 295 295 296 296 296 297 297 297 296 295 295 294 294 294
314 315 315 316 313 312 312 313 313 312 311 311 311 312 312 311 311 312 312 314 314 313 313 312 311 312 311 309 308 307 306 305 303 304 305 306 305 306 306 307 309 309 310 311 311 312 312 314 315 316 317 318 319 320 320 319 318 317 316 315 315 314 313 311 310 307 305 303 301 301 300 300 299 298 297 296 296 296 296 296 295 295 295 295 295 295 296 296 296 296 296 295 294 294 294 293 293
312 312 313 315 314 312 312 314 313 310 311 312 310 310 313 312 313 314 311 311 312 312 313 312 311 310 309 309 308 308 306 304 302 302 304 305 306 307 307 309 309 309 310 311 310 309 310 312 312 314 315 316 317 318 318 318 317 317 316 315 314 314 313 311 308 306 303 301 301 300 299 299 298 297 296 296 296 296 296 296 296 295 295 295 295 295 295 296 296 296 295 294 293 293 293 293 293
312 311 312 313 313 313 311 312 312 309 311 313 310 311 314 313 312 313 311 310 311 311 312 311 310 309 308 308 308 309 308 306 304 303 304 305 306 307 307 308 309 309 309 309 308 309 309 309 310 312 313 314 315 316 317 317 316 316 315 315 314 313 313 311 308 305 302 301 300 299 298 298 297 296 296 296 296 296 296 295 296 295 295 295 294 295 295 295 296 295 294 293 293 292 292 292 292
314 310 313 314 312 316 314 311 310 309 312 311 310 311 312 311 311 311 310 309 309 310 310 309 310 309 308 309 309 309 309 308 307 305 306 306 306 307 307 307 307 308 308 308 309 309 309 308 308 310 311 312 313 314 315 315 316 315 315 314 314 313 312 311 308 305 303 301 300 299 298 297 296 296 296 296 296 296 295 295 295 295 295 294 294 294 294 295 295 294 293 293 292 292 292 292 291
320 311 316 318 312 317 316 312 312 311 311 309 309 313 312 310 312 311 310 309 309 309 310 309 309 309 309 309 308 308 308 308 307 307 307 307 307 307 307 307 306 307 307 308 308 308 308 307 307 308 309 311 312 313 314 314 314 314 314 313 313 313 311 311 309 306 303 301 300 299 298 297 296 296 295 296 296 296 295 295 295 295 294 294 294 294 294 294 294 293 293 292 292 292 291 291 291
322 312 315 318 314 314 313 313 316 312 309 309 309 312 312 311 313 313 311 309 309 309 309 308 308 308 308 308 308 308 308 308 308 307 308 307 307 307 308 308 307 307 307 307 308 308 308 307 307 307 307 309 310 311 312 312 313 312 312 311 311 311 310 310 309 306 304 301 300 299 298 297 296 295 296 295 296 296 295 295 295 295 294 294 294 294 294 294 294 293 293 292 292 292 291 291 292
319 314 314 317 315 312 312 314 316 311 309 310 309 309 310 310 311 311 309 309 309 309 308 308 308 308 308 308 308 308 308 308 309 308 308 308 308 308 308 308 308 308 307 307 307 307 308 307 307 307 306 307 308 309 310 311 311 310 310 309 309 309 310 309 308 306 304 302 300 298 297 296 296 295 295 295 295 295 295 295 295 295 294 293 293 293 293 293 293 293 292 292 291 291 291 292 292
316 316 315 315 313 312 312 312 313 313 310 309 309 308 308 308 308 308 308 308 308 308 309 308 308 308 308 308 308 308 308 308 309 309 308 308 308 308 308 308 308 308 308 307 306 307 307 307 306 306 306 305 306 307 308 309 309 308 308 308 307 308 308 307 307 306 304 302 300 298 297 296 296 295 295 295 295 295 295 295 295 295 294 293 293 293 293 293 293 292 292 291 291 291 291 291 291
312 313 313 313 312 311 311 310 311 311 309 308 309 308 308 308 308 308 308 308 308 308 308 307 307 308 308 308 308 309 309 309 309 308 308 308 308 309 309 309 308 308 308 307 306 306 306 306 306 305 305 304 304 305 306 307 307 306 306 305 305 306 306 306 306 306 304 302 300 298 297 296 295 295 295 295 295 296 296 295 295 295 294 293 293 293 293 293 293 292 291 291 291 290 290 291 291
310 311 312 312 311 310 310 310 310 309 308 309 309 309 309 308 308 308 308 309 308 308 308 308 308 308 308 309 309 309 309 309 309 308 308 308 309 309 309 308 308 307 307 306 305 305 305 305 305 304 304 304 303 304 305 306 306 305 304 304 305 305 304 304 304 304 303 302 300 298 297 296 295 295 295 295 295 296 296 296 295 295 294 293 293 293 293 293 293 292 291 290 290 291 290 290 291
311 312 312 311 310 310 309 309 309 308 307 309 310 309 308 308 308 308 309 309 308 308 308 309 309 309 309 309 309 310 309 310 310 309 307 307 308 308 308 308 307 307 307 307 306 306 305 305 304 304 304 303 303 303 304 304 305 305 304 304 304 303 302 302 302 303 302 301 299 297 296 295 295 295 295 295 296 296 297 296 296 295 294 293 292 292 293 292 292 291 290 289 290 290 291 291 291
311 311 311 312 311 310 310 310 310 309 308 310 311 308 308 308 309 308 309 308 309 309 309 309 309 309 309 309 310 310 310 310 309 309 308 306 306 307 307 307 307 308 307 307 306 305 304 304 304 304 303 303 303 303 303 303 304 304 303 303 302 301 300 301 300 300 299 298 297 296 295 295 295 295 295 295 296 297 297 297 296 296 295 293 292 292 292 292 291 291 290 290 290 290 291 291 291
311 311 312 313 311 311 311 312 313 311 309 309 309 308 309 308 309 309 309 308 308 309 309 309 309 309 309 309 310 309 309 309 309 309 308 306 305 305 306 307 307 308 307 306 306 304 303 303 304 303 303 303 303 302 302 302 303 302 302 301 301 300 299 299 298 297 297 297 296 296 295 295 294 295 295 295 296 296 297 297 297 296 295 293 293 292 292 291 291 291 290 290 290 290 291 290 291
313 314 313 312 311 311 311 311 311 312 312 310 309 311 313 312 313 313 313 311 309 311 311 309 308 309 311 311 311 309 309 309 309 309 309 308 306 304 305 306 307 307 307 307 306 305 304 304 304 304 303 303 302 302 302 301 301 301 300 300 299 299 298 297 297 296 296 295 295 295 295 294 294 295 295 295 296 296 296 296 296 296 295 293 292 292 292 292 291 291 290 290 290 292 292 291 291
313 317 314 311 311 311 311 311 310 313 316 312 310 314 315 315 316 318 318 316 314 314 311 309 310 311 311 313 312 310 310 310 309 309 308 307 305 302 303 304 305 305 305 306 305 304 304 303 303 303 302 302 302 301 301 301 301 300 300 299 298 297 297 296 296 296 295 295 295 295 295 295 294 295 295 295 295 296 296 296 296 295 294 293 292 292 292 291 291 291 291 290 290 292 293 292 291
313 316 315 312 311 311 312 311 311 316 316 311 312 316 316 315 315 317 317 316 314 313 311 311 312 311 311 312 311 311 311 309 309 308 307 307 305 303 302 302 301 301 302 303 303 303 302 302 302 302 302 301 301 301 300 300 300 300 300 299 298 298 297 296 297 296 296 295 295 295 295 295 294 294 295 295 295 295 295 295 295 295 295 294 293 292 291 291 291 291 291 291 290 291 292 292 292
316 315 315 315 312 312 314 311 312 317 315 312 313 313 315 316 313 314 316 315 314 312 313 315 313 312 312 309 309 311 310 309 308 307 307 306 304 302 300 299 298 299 300 301 301 302 301 301 301 301 302 301 301 300 300 300 300 299 299 299 299 298 298 298 297 297 296 296 295 295 294 294 294 294 294 294 295 295 295 295 295 295 295 294 293 292 291 291 291 291 290 290 290 290 292 293 293
317 312 312 313 312 314 315 313 315 315 313 315 315 310 314 318 314 314 313 313 315 315 318 319 315 316 314 310 310 311 309 308 307 306 306 305 301 299 297 296 297 298 299 300 300 301 301 300 300 301 301 301 300 300 300 300 300 299 299 299 298 298 298 298 298 297 297 296 295 295 294 294 294 294 294 294 294 294 294 294 294 295 294 295 294 292 291 291 291 291 290 290 290 290 291 292 293
312 309 312 316 315 315 314 313 316 318 316 316 316 312 314 318 318 317 312 313 319 319 318 316 314 315 313 310 311 311 310 309 307 306 304 302 299 297 297 297 297 297 298 299 299 300 300 299 300 300 300 300 300 300 299 299 299 299 298 298 298 298 298 298 297 297 297 296 295 295 294 294 294 293 293 293 294 294 294 294 294 294 294 295 295 293 291 291 291 290 291 291 290 290 290 291 292
310 313 317 318 317 316 316 316 316 318 318 317 317 315 313 317 322 320 316 317 318 316 314 314 313 313 312 311 311 311 310 307 305 304 302 300 298 297 296 296 296 297 298 298 299 299 299 299 299 299 300 299 299 299 299 299 299 298 298 298 298 298 297 297 297 297 296 296 295 295 295 294 294 293 293 293 293 293 293 293 294 294 294 294 295 294 292 291 291 291 290 290 290 290 290 290 291
313 319 316 315 319 319 319 320 317 318 322 320 316 313 311 316 319 317 316 317 314 312 312 313 314 314 315 314 312 309 306 303 302 301 299 298 297 296 295 295 295 295 296 296 297 298 298 298 298 299 299 299 299 298 298 299 298 298 298 298 298 298 297 297 297 297 296 296 296 295 295 294 294 293 293 293 293 293 293 293 293 294 294 294 294 294 293 291 291 290 290 290 290 289 289 290 290
312 316 313 314 319 319 320 322 318 318 322 317 311 311 312 313 314 314 314 313 312 312 312 312 314 314 315 314 310 305 301 300 299 299 298 297 296 295 294 294 293 293 294 294 295 296 297 297 297 298 298 298 298 298 298 298 298 298 297 297 297 297 297 297 297 297 296 296 296 295 295 294 294 293 293 293 293 293 294 294 294 294 294 295 294 294 293 291 290 290 290 290 289 289 289 289 290
310 312 314 317 319 318 322 324 318 317 320 314 308 312 315 314 315 315 314 312 313 313 313 314 314 314 313 310 306 302 299 298 297 297 297 296 295 295 294 293 293 293 293 293 293 294 295 296 296 297 297 297 297 297 297 297 298 297 297 297 297 297 297 297 297 297 296 296 296 295 295 295 294 294 294 295 295 294 294 295 295 295 295 294 294 294 293 291 290 290 290 289 289 289 289 289 290
309 313 315 317 322 322 322 324 320 318 322 315 308 313 319 319 317 315 314 313 312 312 312 310 307 307 307 305 301 299 298 297 297 296 296 295 295 295 294 294 293 293 293 293 293 293 293 294 295 295 296 296 296 296 296 297 297 297 297 297 296 296 297 296 296 296 296 296 296 295 295 295 295 295 295 295 295 294 295 294 294 294 294 293 293 293 292 291 290 289 289 289 289 289 289 289 289
310 313 314 314 322 323 318 322 321 318 321 317 311 315 319 317 314 312 313 313 312 312 309 303 302 303 302 300 298 297 297 296 296 295 295 295 294 294 294 294 293 293 293 293 293 293 293 293 294 294 295 295 295 295 295 296 296 296 296 296 296 296 296 296 296 296 296 296 296 296 296 296 295 295 295 294 293 293 294 293 293 293 293 293 292 292 291 291 290 289 289 288 289 289 288 288 289
311 312 314 314 317 319 316 320 320 316 317 318 316 317 317 315 316 316 316 315 313 310 303 300 300 300 298 298 297 296 296 295 295 295 294 294 294 294 294 294 293 293 293 293 293 293 293 293 293 294 294 294 294 294 294 295 295 295 295 296 296 296 296 296 296 296 296 295 295 295 296 295 295 295 294 294 293 293 293 293 293 293 292 292 292 291 291 290 289 289 289 288 288 288 288 288 289
313 315 316 313 315 317 316 319 321 318 317 319 319 319 317 318 321 321 318 315 309 304 299 298 299 298 297 297 296 295 295 294 294 294 294 293 293 293 293 293 293 293 293 293 293 293 293 293 293 293 293 294 294 293 294 294 294 294 294 295 295 295 296 296 296 295 295 295 295 295 295 295 295 295 295 294 294 293 293 292 292 292 292 291 291 291 290 290 289 289 288 288 288 288 288 288 288
312 316 315 313 317 318 316 319 320 318 318 320 321 320 319 318 319 318 315 311 305 301 298 298 297 296 296 295 295 294 294 293 293 293 293 293 293 292 292 293 293 293 293 293 293 293 293 292 292 292 292 293 293 293 293 293 294 294 294 294 294 295 295 295 295 295 295 295 295 295 295 295 294 294 294 294 294 293 293 293 292 292 291 291 291 290 290 290 289 288 288 287 287 288 287 287 287
309 310 313 314 316 316 316 319 319 319 319 320 322 321 319 319 318 314 311 305 302 301 298 297 296 295 295 294 294 293 292 292 292 292 292 292 292 292 292 292 292 292 292 292 292 292 292 292 292 292 291 292 292 293 293 293 293 293 293 294 294 294 294 294 294 294 295 295 295 295 295 295 294 294 294 294 293 293 293 293 292 292 291 291 290 290 289 289 288 288 287 287 287 287 287 287 287
312 311 313 312 313 315 316 316 317 318 318 319 321 318 319 320 316 310 305 301 300 300 298 296 295 294 293 293 292 292 292 291 291 291 291 291 291 291 291 291 292 292 292 292 292 292 292 292 291 291 291 291 291 292 293 293 293 292 292 293 293 294 294 294 294 294 294 294 294 294 294 294 294 294 294 293 293 293 293 292 292 292 291 291 290 290 289 289 288 287 287 287 286 286 286 286 286
316 315 314 312 313 316 316 315 317 316 315 317 317 316 319 319 310 302 300 299 298 298 297 295 294 293 293 292 292 291 291 290 290 290 290 290 290 290 290 291 291 291 291 291 292 291 291 291 291 291 290 290 291 291 292 292 292 292 292 292 292 292 293 293 294 294 294 294 294 294 294 294 293 293 293 293 293 293 292 292 292 291 291 291 290 290 289 288 288 287 286 286 286 286 286 286 286
Wind_Speed
2 1 1 2 3 2 2 4 1 2 2 1 2 1 3 2 1 2 3 3 2 2 3 1 4 4 2 2 4 4 3 5 4 2 2 3 3 7 20 19 13 21 32 32 30 30 27 26 24 23 21 20 19 19 18 17 16 15 15 14 13 12 11 11 10 10 9 9 9 9 8 8 8 8 7 7 7 7 7 6 6 6 6 6 6 6 6 7 6 6 6 6 5 4 2 1 0
1 1 1 1 4 2 1 3 1 2 3 2 2 2 3 1 1 4 5 4 3 2 0 1 3 2 1 1 2 1 4 6 4 2 3 4 4 8 21 21 15 21 32 33 31 32 28 27 26 24 22 20 19 19 18 17 16 15 15 15 14 13 12 12 11 11 10 10 10 10 10 10 9 9 9 8 8 8 7 6 6 6 7 7 6 7 7 7 6 6 5 5 4 3 1 0 1
1 1 1 1 4 4 1 3 1 0 1 2 3 3 1 0 4 6 6 6 5 2 1 1 2 2 1 2 1 1 4 4 3 3 4 5 3 6 22 23 15 21 31 33 31 32 30 28 26 25 23 20 20 20 18 18 17 17 16 16 15 14 14 13 13 12 11 12 11 11 11 11 11 10 9 8 8 8 7 6 6 6 6 7 7 7 7 6 6 5 5 4 3 1 1 1 2
2 2 2 1 2 3 3 3 1 2 1 2 3 3 2 4 6 5 5 6 5 2 1 1 1 2 3 4 2 1 5 4 4 5 2 4 3 5 22 24 15 22 31 32 31 31 30 28 27 24 22 20 20 19 18 18 18 17 17 17 16 16 15 15 14 13 13 13 13 12 12 12 11 9 9 8 8 7 7 7 6 6 6 7 7 7 5 5 5 6 6 4 3 2 3 3 4
2 4 3 2 2 1 3 2 2 2 3 3 1 4 4 6 5 5 5 6 4 2 2 1 1 1 1 4 2 1 4 3 3 7 4 3 4 6 21 25 17 24 32 32 31 31 29 28 26 24 22 20 19 19 18 18 18 17 18 18 17 17 16 15 15 14 13 13 14 13 12 11 10 9 9 8 7 7 7 7 6 6 6 6 7 6 5 3 3 6 6 5 4 4 4 5 5
3 5 6 5 3 1 3 1 2 2 4 4 2 5 4 4 5 5 6 7 3 3 2 0 1 1 1 3 3 4 4 1 1 6 6 3 5 7 21 26 19 25 32 32 31 30 28 27 25 24 21 20 19 18 18 18 18 17 18 18 17 18 17 16 15 15 14 13 12 12 11 10 9 8 9 9 8 7 7 8 7 8 8 7 7 6 5 3 3 5 6 5 5 5 6 5 6
3 2 5 5 2 2 3 2 3 3 4 5 3 5 5 3 4 4 6 5 2 1 1 1 1 1 3 2 2 7 7 6 3 2 5 4 5 7 21 25 20 25 31 32 31 29 28 27 25 23 21 21 19 19 19 18 18 17 17 18 17 17 16 15 14 14 13 12 12 11 10 9 8 7 8 10 8 8 8 9 10 9 9 8 7 7 6 4 3 4 5 5 6 5 5 5 6
4 1 1 3 1 2 2 2 3 3 3 3 3 6 8 5 3 3 4 2 2 1 1 3 1 1 3 1 2 5 6 11 10 6 5 6 6 8 22 25 21 26 30 31 30 29 28 27 26 24 22 21 20 19 19 19 18 18 17 17 17 15 14 14 13 13 12 12 12 11 11 10 9 9 9 10 9 9 9 9 10 9 9 8 8 8 7 4 4 4 4 4 4 4 4 4 4
5 3 0 2 1 1 1 2 3 3 4 4 4 7 8 5 3 3 4 3 3 1 2 4 2 3 3 2 4 6 6 9 12 12 8 7 8 10 20 24 22 25 30 31 30 29 28 27 27 25 24 22 21 20 20 20 20 19 19 17 16 16 15 15 14 13 14 13 12 12 12 11 11 11 10 10 10 9 9 10 11 10 9 9 8 8 8 7 5 4 4 4 3 2 1 1 1
5 4 1 2 2 1 3 2 2 2 4 4 5 9 9 5 3 3 4 4 2 1 3 1 2 4 3 2 5 4 5 7 9 13 10 8 9 11 19 23 23 24 28 30 30 29 28 27 27 26 26 24 22 21 21 21 20 20 20 18 17 17 17 16 15 15 15 14 14 14 13 13 13 13 12 11 10 10 9 10 11 10 9 9 9 10 10 7 6 5 4 2 1 1 1 2 2
3 4 2 2 2 1 3 3 3 4 5 4 6 8 7 3 2 2 2 4 3 2 2 2 2 4 1 3 5 4 6 8 9 11 11 10 10 12 18 23 23 24 27 29 30 29 28 28 27 27 27 25 24 24 23 21 21 21 20 19 18 18 18 18 17 17 17 15 15 15 14 14 15 14 13 12 12 11 11 10 12 12 10 10 11 11 9 8 7 4 3 3 3 3 3 3 3
2 2 3 3 1 2 3 2 5 6 6 4 4 4 2 4 4 2 3 3 1 1 4 5 2 2 1 3 3 5 7 8 9 9 11 11 11 13 18 23 24 25 26 28 30 30 29 28 28 28 28 27 25 25 24 23 22 22 21 20 20 20 20 19 18 18 17 17 17 16 15 15 15 15 14 13 13 12 12 13 14 15 13 13 13 11 9 8 6 5 4 4 3 3 3 3 3
2 2 4 2 2 2 2 2 4 5 6 3 3 2 2 4 4 5 5 2 1 1 5 7 2 2 2 4 4 6 6 7 8 10 13 12 12 13 18 23 25 26 27 28 29 30 30 29 29 29 28 28 26 25 25 25 24 23 23 23 22 21 21 21 21 20 19 19 19 17 17 18 17 16 15 14 14 14 14 15 15 16 15 14 12 11 10 9 7 6 6 5 4 3 3 3 3
2 3 3 2 0 1 2 2 2 1 4 4 3 2 1 3 4 4 4 1 5 4 3 4 4 1 3 3 4 5 3 5 7 11 13 13 13 14 18 22 25 26 27 29 30 30 31 30 30 29 29 29 28 27 26 26 25 24 24 24 23 23 23 22 22 22 20 20 20 19 20 20 19 17 16 16 15 15 16 16 15 15 14 13 13 12 11 10 9 8 7 6 5 4 3 3 2
3 2 3 2 1 1 2 2 1 2 4 5 3 1 1 4 3 3 4 3 6 4 1 1 4 3 2 3 4 4 3 4 6 11 12 13 14 15 19 21 25 27 28 29 30 30 31 31 31 31 30 30 30 29 28 27 26 26 26 25 25 25 24 24 23 23 22 21 21 21 22 22 20 18 17 16 16 15 16 16 15 14 14 14 14 13 11 11 10 9 8 6 5 4 3 2 1
2 3 4 1 1 1 3 3 2 2 4 5 2 1 2 5 3 2 4 3 4 2 1 3 5 3 3 6 6 4 2 4 5 10 11 13 14 16 19 21 24 26 28 29 31 31 31 32 32 32 32 31 31 30 29 28 27 28 27 26 26 26 26 25 25 25 24 23 23 23 23 23 20 19 19 18 18 17 17 16 15 16 15 15 14 13 12 11 10 9 8 6 5 4 3 2 1
2 3 3 0 2 2 3 4 3 3 5 5 4 0 0 5 2 2 1 2 4 3 1 5 4 3 5 6 6 4 5 5 6 9 11 13 14 16 18 21 23 25 29 31 32 32 32 33 33 33 33 33 32 31 30 29 28 28 28 27 27 27 27 26 27 26 25 25 25 25 25 24 22 21 21 20 20 19 18 17 17 17 16 15 14 13 12 11 10 9 7 6 4 3 2 2 2
2 2 2 2 3 3 5 7 6 4 4 5 3 1 1 6 5 2 1 1 4 5 5 6 6 8 12 13 11 9 8 7 9 11 13 14 14 16 19 22 24 27 30 32 34 34 34 34 34 34 34 34 33 32 31 30 30 29 29 29 29 29 28 28 29 28 27 27 27 27 26 25 24 22 22 22 21 19 19 19 18 17 17 16 15 14 12 11 10 8 7 6 4 4 3 3 2
2 3 1 3 5 5 6 7 6 4 4 4 4 2 2 6 3 1 3 5 4 7 9 4 6 13 14 17 18 15 11 11 12 15 16 17 18 21 22 23 26 29 31 35 37 37 36 36 36 36 35 35 34 33 33 31 31 31 30 30 31 30 30 30 31 30 29 29 30 29 27 26 25 23 23 22 21 20 20 20 19 19 18 17 16 14 13 12 10 9 7 6 5 5 4 4 3
2 3 2 6 6 5 5 7 7 8 4 3 6 2 2 5 2 0 2 7 6 9 11 5 8 12 11 12 15 15 14 14 15 17 18 20 23 25 24 24 28 32 36 38 37 38 39 38 38 37 36 36 35 35 34 33 33 33 32 32 32 32 32 32 32 32 31 31 31 29 28 26 25 24 24 23 22 22 22 22 21 21 20 18 17 15 14 13 11 10 9 8 7 6 6 5 5
1 4 4 6 4 3 6 8 9 7 3 3 5 4 6 4 2 2 2 5 10 11 11 11 13 12 10 9 8 11 12 14 16 18 20 22 24 26 27 28 31 34 34 34 35 38 40 40 40 39 38 37 37 36 35 35 34 34 34 34 34 33 33 34 34 34 33 32 31 30 28 27 26 26 26 25 24 24 24 24 23 22 20 19 17 15 14 13 12 11 10 10 9 8 7 7 6
2 4 6 5 4 3 6 7 7 5 3 3 4 6 7 1 1 4 6 5 11 12 8 11 13 10 9 8 5 8 9 11 13 17 21 24 25 27 29 31 31 30 29 32 37 40 41 42 42 40 40 39 39 38 37 36 36 36 36 36 36 35 35 36 36 35 33 32 31 30 29 28 27 27 27 26 26 26 26 25 24 22 20 19 17 15 14 13 13 12 11 11 10 9 9 8 7
2 4 5 6 5 5 5 3 3 5 4 3 4 5 3 3 6 5 10 13 17 17 11 7 10 9 9 6 4 6 9 10 12 18 25 26 27 30 33 33 33 32 32 35 38 39 40 42 43 42 42 41 41 39 38 37 37 37 37 37 37 38 37 37 37 36 34 33 32 31 30 30 29 29 29 28 28 28 27 25 24 22 21 19 18 17 16 15 14 13 12 11 11 10 9 8 8
2 4 4 6 6 7 7 2 2 5 5 7 3 7 7 5 8 3 9 17 19 20 15 8 11 9 7 7 7 9 10 12 15 24 28 29 33 34 34 35 35 33 34 38 38 37 40 42 44 44 44 44 43 41 40 39 38 38 38 38 39 39 39 39 38 36 35 34 33 33 31 30 30 30 30 30 29 29 28 26 25 23 22 20 20 19 17 16 15 14 13 12 11 10 9 9 8
4 7 5 3 4 6 6 3 4 6 7 6 2 9 16 10 5 8 16 20 16 15 16 12 10 9 8 10 13 12 11 13 18 23 25 30 34 32 32 33 32 31 37 41 39 39 41 41 43 45 46 46 45 43 42 41 41 40 40 40 40 40 40 40 38 37 36 36 35 34 33 32 31 31 31 31 30 30 29 27 26 25 23 22 21 20 18 17 16 15 13 12 11 10 10 9 9
7 7 5 4 6 6 5 5 6 7 6 4 3 13 17 6 3 13 22 20 14 11 13 11 7 10 11 11 13 12 11 13 17 19 22 29 29 27 33 33 29 34 42 41 39 42 42 41 43 46 47 47 46 45 44 44 43 43 43 43 42 42 41 40 39 38 37 37 36 35 34 33 32 32 32 31 31 31 29 27 26 25 25 24 22 21 19 18 16 15 14 13 12 11 11 10 9
5 4 5 7 8 7 4 6 7 6 6 7 9 15 15 1 2 12 15 8 6 7 11 9 5 10 13 11 11 9 9 15 18 16 17 21 22 28 34 32 33 41 41 38 41 43 41 41 44 45 47 48 47 47 47 46 46 45 45 44 44 43 43 42 41 40 39 38 37 36 35 34 33 33 32 32 32 31 30 28 27 27 26 25 23 21 20 19 17 16 15 14 13 12 12 11 10
2 1 6 8 8 8 5 7 8 5 5 8 11 12 12 2 2 15 16 3 2 6 11 11 8 11 12 11 11 7 8 17 19 13 14 18 23 30 33 33 38 41 39 41 44 41 40 43 44 44 45 47 48 49 49 48 48 47 46 46 46 45 44 44 43 42 41 39 38 37 36 35 34 34 33 33 32 31 31 30 28 28 27 25 24 23 22 21 19 18 17 16 15 14 13 12 11
1 3 5 9 8 9 7 6 5 5 4 6 9 5 8 4 9 18 17 6 4 6 10 13 11 11 10 10 10 7 9 15 15 14 21 26 28 30 32 36 38 38 40 42 39 37 40 43 43 43 43 46 48 50 50 50 50 49 48 48 47 46 46 46 45 44 42 41 39 38 37 36 36 35 35 34 33 32 31 30 30 29 27 26 25 24 23 22 21 20 19 18 17 16 15 13 12
2 2 0 6 7 8 6 2 1 3 5 6 6 3 7 10 14 18 12 4 4 7 9 11 11 10 8 8 8 9 11 11 13 19 27 30 31 30 33 38 35 36 37 35 35 37 40 40 41 43 44 46 48 49 50 51 51 50 50 49 48 48 48 48 47 45 44 42 41 40 38 38 37 37 36 35 34 33 32 31 31 30 29 28 27 26 25 24 22 21 20 19 18 17 15 13 12
3 1 1 2 3 6 6 1 3 1 3 7 5 4 9 13 15 15 8 2 1 7 11 9 10 11 9 8 8 11 12 13 18 24 28 31 32 31 34 35 30 33 34 33 36 38 38 38 40 42 44 47 48 49 51 51 51 50 50 50 50 49 49 49 48 47 46 44 43 41 40 39 39 38 38 37 36 34 33 33 32 31 30 30 29 27 27 25 23 22 21 20 19 18 16 14 13
2 2 3 2 3 5 9 4 6 6 4 5 5 4 8 13 14 13 6 4 0 6 11 9 10 14 14 11 9 12 14 16 21 26 30 32 30 30 33 33 29 31 33 34 37 36 36 38 39 41 43 46 48 50 50 50 50 49 49 49 50 50 49 49 49 49 47 46 44 43 42 41 40 40 39 38 37 36 35 34 33 33 32 31 30 29 28 26 24 23 22 20 19 19 17 15 13
2 2 5 4 4 4 7 7 6 6 2 2 7 6 6 9 10 11 7 6 7 10 14 13 13 15 15 13 11 11 14 16 18 25 29 24 24 28 31 33 32 32 33 34 35 35 37 38 39 41 43 46 48 49 49 49 48 48 48 47 47 48 49 50 49 49 48 47 46 45 44 43 42 41 40 39 38 37 36 35 34 34 34 33 32 30 29 27 26 24 23 22 20 19 18 16 14
3 2 4 4 5 4 4 7 6 1 5 6 7 7 10 12 11 12 12 12 11 14 19 16 14 15 13 12 13 13 13 14 17 23 20 13 17 24 26 30 31 32 32 32 34 35 37 38 39 41 43 44 44 46 47 47 46 45 44 45 45 46 48 49 49 49 49 48 47 46 45 44 43 42 42 41 39 38 37 36 35 35 35 34 33 32 30 29 27 26 25 23 22 20 19 17 15
6 4 4 4 4 5 5 6 6 5 6 6 3 7 14 15 14 14 16 14 10 14 19 16 14 15 13 12 13 15 14 15 18 19 16 14 18 21 23 26 27 29 31 31 32 34 36 37 38 40 41 41 42 43 43 42 41 41 42 42 43 45 47 48 48 50 50 49 49 47 46 45 45 44 43 42 41 40 38 37 37 37 37 36 34 33 32 31 29 28 26 25 23 21 19 17 15
5 4 4 6 6 5 7 8 7 7 11 10 8 13 14 13 15 13 15 13 11 15 15 14 14 14 13 12 13 15 16 16 16 15 16 17 20 20 22 24 24 26 28 29 31 32 34 35 36 38 39 40 39 39 38 39 39 39 39 39 42 46 47 48 49 50 51 51 51 49 48 46 46 45 45 44 42 41 40 39 38 38 37 37 36 35 34 34 32 30 28 26 25 22 20 18 15
2 3 5 6 7 8 8 10 10 4 5 9 11 16 14 13 15 14 15 15 15 16 11 12 15 15 14 14 15 14 15 16 14 14 15 17 19 19 20 20 21 23 24 27 29 32 34 35 36 38 38 39 39 39 40 41 42 41 40 43 48 49 48 48 49 51 51 52 51 50 49 48 47 47 46 45 44 43 42 40 39 38 38 38 38 37 36 34 32 31 29 27 25 24 22 19 17
6 5 7 5 5 11 10 10 12 3 1 5 8 13 14 14 16 16 16 15 16 17 11 12 16 17 16 13 12 11 11 13 12 12 14 15 16 16 16 16 18 20 23 26 29 32 33 35 37 37 36 38 41 42 42 44 46 45 44 46 48 46 46 48 50 51 51 50 50 50 49 49 48 48 47 46 46 45 43 41 40 39 39 39 38 36 35 34 33 32 30 28 26 24 22 21 21
6 3 4 5 5 8 7 7 8 3 1 6 9 12 11 15 21 19 16 13 14 15 12 15 17 17 15 9 8 10 11 13 14 14 14 12 12 13 13 14 16 20 24 26 28 30 30 33 35 35 36 39 41 43 43 44 44 43 41 39 38 37 39 44 45 45 46 47 47 48 48 49 49 48 48 47 46 45 44 42 40 39 39 40 39 38 37 36 35 34 32 30 28 24 21 21 24
5 3 4 7 7 5 5 5 6 4 3 5 10 12 10 13 15 12 12 10 10 13 16 17 12 10 13 11 9 11 12 14 16 16 14 11 9 10 11 13 16 19 23 24 26 27 28 31 34 35 36 38 40 42 42 41 38 37 35 32 31 31 32 35 36 36 40 43 44 46 48 49 49 48 48 47 46 45 44 43 42 41 41 41 41 40 40 39 38 36 34 32 30 26 21 21 24
4 5 6 10 9 7 8 5 6 6 5 3 7 10 6 4 4 3 5 4 5 11 15 12 4 3 8 10 11 10 9 9 12 15 15 12 10 12 15 16 17 19 22 24 24 25 28 30 32 35 36 37 39 40 40 38 35 33 32 26 25 27 26 28 34 36 38 41 43 46 47 48 48 48 48 47 47 46 45 45 43 43 43 42 42 42 42 41 40 38 37 35 33 30 25 23 23
4 6 12 14 12 10 10 6 6 5 4 3 7 7 4 1 1 4 4 5 9 11 7 6 5 3 5 7 9 8 7 6 8 11 12 11 11 14 17 17 17 18 20 21 22 23 25 27 29 31 33 35 36 37 38 38 37 36 35 31 28 28 27 31 39 40 39 42 44 45 46 47 48 48 48 48 47 46 46 45 44 44 44 44 43 43 42 42 41 39 38 37 35 31 27 24 24
3 5 8 11 9 8 8 6 3 1 3 3 4 1 7 3 3 7 6 7 14 11 6 7 7 6 5 6 6 7 8 7 7 9 9 10 11 12 15 17 17 18 19 19 20 20 21 23 25 28 31 33 34 35 37 38 38 38 39 38 35 33 32 34 36 33 34 39 40 41 44 46 47 48 47 47 46 46 46 45 44 44 44 44 43 43 43 42 41 40 39 38 36 32 28 26 26
4 4 2 3 4 5 5 1 1 3 3 5 1 3 6 7 4 6 7 8 11 11 8 9 7 6 6 6 5 6 7 8 9 10 10 10 11 13 16 18 19 20 20 19 18 17 17 19 21 24 28 30 32 33 36 38 38 38 38 37 34 35 34 31 30 29 31 35 36 37 41 43 45 46 46 46 46 46 45 45 44 44 43 43 43 44 44 43 42 41 40 39 38 35 30 27 28
5 4 4 4 3 4 4 4 2 1 3 5 3 3 3 8 5 2 4 5 7 9 9 9 7 7 7 7 7 7 6 7 8 9 10 11 12 16 18 20 26 27 24 23 20 15 13 14 17 20 24 28 30 31 34 36 37 36 36 35 33 33 31 28 26 27 29 31 34 35 37 40 42 44 45 45 46 46 46 45 45 44 43 43 43 43 43 43 42 42 42 41 40 38 34 29 28
4 5 5 4 4 3 3 3 2 2 3 5 5 5 4 8 4 2 1 2 5 6 6 6 7 8 8 7 8 8 7 8 8 8 8 10 14 17 19 27 34 32 27 25 23 18 14 11 12 15 19 23 26 28 31 34 35 34 34 34 32 29 28 26 23 25 28 30 32 33 35 38 40 42 44 45 45 46 46 45 45 44 44 43 43 43 44 44 44 43 43 42 41 40 36 31 29
4 6 5 6 5 4 3 1 2 2 5 7 8 10 5 6 4 3 3 3 5 3 6 8 9 10 8 6 7 8 8 8 8 8 10 15 20 26 31 34 36 35 31 27 23 20 16 12 10 11 14 17 20 24 27 30 32 33 33 33 33 30 28 28 26 27 29 31 33 34 35 36 38 41 42 43 44 45 45 45 44 44 44 44 44 44 45 45 45 45 44 43 42 41 38 34 31
4 4 4 3 4 4 4 4 3 1 6 6 6 9 7 7 6 2 4 5 4 4 5 8 9 10 8 6 6 8 9 9 11 13 15 18 22 28 32 33 34 35 34 29 25 20 16 12 8 8 9 12 16 20 24 27 30 32 32 32 33 32 30 31 32 31 33 34 36 36 36 36 37 38 40 41 43 44 45 45 44 44 45 45 45 45 45 45 45 45 45 44 43 42 39 36 33
4 3 4 2 3 3 3 3 1 3 7 5 1 4 4 9 8 4 8 13 10 5 3 5 7 6 6 7 8 9 10 12 14 14 14 15 16 19 24 28 31 32 31 30 27 22 18 14 9 7 7 9 12 16 20 24 28 30 31 30 31 31 31 32 33 32 32 35 35 36 37 38 39 39 41 43 45 45 45 46 47 47 47 47 47 46 46 46 46 46 46 45 45 44 41 38 36
5 5 5 3 2 1 3 3 2 4 6 3 0 1 2 8 7 6 11 13 10 4 3 7 5 3 4 6 8 10 12 14 13 12 14 14 14 16 20 25 27 28 30 31 30 27 23 19 15 11 9 8 10 14 17 21 25 27 28 29 29 29 30 31 32 31 31 32 33 34 37 39 41 43 45 47 48 48 48 49 50 49 49 49 48 48 47 47 47 47 47 46 45 44 42 40 38
5 4 5 4 4 4 4 4 5 7 5 2 0 1 3 5 4 4 9 9 4 3 5 3 3 4 5 8 11 13 14 13 12 12 14 14 15 19 22 24 26 28 30 32 33 32 29 26 24 19 15 12 10 12 15 19 22 24 26 27 27 27 28 29 29 29 29 30 31 32 35 38 41 43 45 46 47 48 49 49 49 49 48 48 48 48 47 47 47 47 46 46 46 45 43 41 39
2 3 3 2 4 5 4 4 6 5 3 2 2 3 5 5 8 11 11 9 4 3 5 9 10 9 10 13 14 14 13 13 13 13 14 15 19 23 24 25 27 29 32 35 37 37 35 33 32 28 23 19 14 12 13 16 19 22 24 26 27 27 27 27 28 28 28 29 31 32 35 37 39 40 41 42 43 45 47 48 48 48 48 47 46 46 46 47 47 47 47 47 46 45 44 43 41
1 3 3 3 3 5 3 5 2 1 4 5 4 6 6 4 10 13 11 9 7 8 10 13 13 14 16 15 13 13 13 13 13 12 12 14 18 23 26 27 29 31 34 36 37 38 37 37 36 33 30 26 21 17 15 16 17 19 22 24 27 28 29 29 29 28 28 29 30 32 34 35 37 38 38 38 40 42 44 46 47 47 47 47 47 46 46 46 47 47 48 48 48 47 46 45 44
5 3 5 2 2 2 1 2 1 2 7 5 6 11 10 6 7 9 10 11 9 11 13 15 15 16 15 12 12 12 12 11 12 12 13 13 17 22 25 27 29 31 33 35 36 36 36 37 37 35 34 32 29 24 20 18 18 19 21 23 25 28 29 30 30 29 28 28 30 31 33 34 36 37 37 38 39 40 42 44 45 46 46 47 47 47 47 47 47 48 48 49 49 48 47 46 45
4 3 3 2 2 2 1 2 1 5 9 5 5 11 9 5 7 9 10 8 9 10 12 15 15 14 11 10 10 10 10 10 10 11 11 11 14 19 23 26 30 32 34 35 36 37 38 38 37 36 35 34 34 31 26 23 20 20 21 23 25 27 28 30 30 30 29 30 31 32 34 35 35 36 37 38 38 40 41 43 45 46 46 46 47 47 47 48 48 48 48 48 48 48 48 48 46
2 1 3 1 3 3 2 3 2 4 8 6 5 6 4 5 7 5 2 5 7 8 10 11 10 9 7 6 6 7 8 8 8 9 10 11 15 21 25 26 28 29 31 33 35 37 38 39 39 39 37 37 37 36 34 30 26 21 21 23 25 27 28 30 30 30 31 32 33 33 35 36 36 37 37 38 39 40 41 43 44 46 46 46 47 47 47 47 48 49 49 49 48 48 48 48 47
1 1 3 2 2 1 2 2 2 3 6 6 6 6 5 5 2 4 6 6 6 8 9 8 7 8 7 7 7 8 9 10 10 10 11 11 16 22 25 26 26 27 29 31 32 33 35 36 37 38 39 40 40 38 37 36 32 27 24 23 24 26 28 30 31 31 32 33 33 33 35 36 37 38 38 38 39 40 41 42 44 45 47 47 48 48 48 48 48 49 49 48 48 49 48 48 48
5 5 5 6 5 2 4 6 5 5 5 5 7 9 6 1 3 7 8 6 7 8 8 8 7 7 7 7 8 8 8 9 9 9 9 9 13 17 20 23 26 28 30 32 32 32 34 35 35 35 37 38 39 39 38 37 35 32 30 27 25 25 26 28 30 31 32 33 33 34 34 35 37 38 38 39 40 40 40 41 43 45 47 48 48 49 49 49 50 50 49 48 48 49 49 48 48
Wind_Direction
306 281 295 320 331 290 347 42 81 327 69 275 280 251 258 242 290 273 271 271 279 238 194 190 167 165 144 172 206 211 202 184 183 171 233 230 245 200 181 181 179 176 180 180 177 179 180 178 179 183 186 186 189 190 191 193 193 194 196 199 196 194 191 188 186 181 181 179 179 179 177 175 173 164 159 158 162 164 160 168 170 167 161 154 153 154 154 155 159 148 156 186 196 188 171 176 132
322 313 354 32 16 13 246 58 103 330 39 295 275 188 263 310 292 240 232 224 227 239 245 213 200 259 282 180 209 260 245 213 204 205 263 258 267 217 186 181 178 178 182 181 178 181 182 180 180 183 186 186 190 192 193 195 196 199 200 202 202 199 196 193 190 187 185 183 183 183 181 177 174 166 159 155 154 157 152 155 161 161 160 157 157 152 149 159 159 137 150 188 194 193 199 280 318
35 21 35 109 27 38 96 38 100 9 27 283 280 232 252 232 229 233 228 229 242 272 335 245 212 256 208 248 243 207 262 252 231 221 275 259 261 216 189 183 176 179 184 182 180 182 185 183 181 183 185 186 189 192 193 196 198 200 201 203 202 201 199 196 194 191 189 186 184 182 182 179 173 166 163 164 162 158 151 158 158 153 156 154 153 145 149 161 159 165 186 205 207 231 265 285 301
88 47 38 124 51 31 67 34 117 137 236 246 278 259 224 214 237 252 246 250 264 284 275 188 207 218 177 235 251 233 264 267 231 196 264 259 245 215 188 183 174 178 184 184 183 184 186 184 183 182 184 187 189 190 193 197 199 201 202 202 201 199 199 199 196 192 190 186 183 182 181 178 173 170 175 175 170 167 164 170 163 159 153 148 156 151 165 166 161 202 214 221 240 270 278 283 287
96 56 49 110 99 45 96 61 96 140 220 190 252 264 231 223 253 283 273 276 270 212 192 140 268 296 165 223 197 230 251 263 250 204 239 300 260 219 187 185 176 177 184 185 185 186 187 185 183 181 183 186 187 189 193 198 199 201 202 202 200 199 199 198 195 190 188 184 184 184 181 180 177 178 190 188 179 179 173 173 177 180 173 175 185 174 183 165 156 219 231 244 261 279 280 283 283
118 74 57 78 91 102 120 153 166 208 228 168 220 263 248 228 248 281 291 302 297 192 203 79 267 330 295 251 208 219 229 277 339 202 225 294 271 211 186 188 181 179 184 186 186 187 187 185 185 181 183 186 185 189 193 198 199 200 202 201 200 199 198 197 194 190 184 182 184 183 182 184 180 182 200 206 201 196 184 183 194 195 192 200 203 194 193 164 166 228 242 255 266 276 276 282 285
137 106 39 71 69 39 121 199 201 238 242 176 204 268 282 246 220 299 316 333 5 187 200 271 237 39 266 285 269 241 233 231 230 198 220 251 269 201 188 190 184 182 185 187 188 188 188 187 186 182 185 188 186 190 194 197 198 195 199 202 200 198 197 195 191 187 182 182 185 187 190 190 189 191 204 214 213 205 194 186 192 195 194 197 197 191 177 157 190 237 248 258 263 267 271 277 281
88 116 354 93 85 10 115 235 241 222 250 218 221 253 274 267 213 293 300 329 304 249 133 260 229 179 269 351 266 261 255 241 238 244 239 238 246 196 190 193 189 185 186 189 189 189 190 189 188 185 186 189 187 190 194 193 193 192 193 196 194 190 192 192 188 188 189 191 194 197 201 201 205 210 215 220 213 202 194 184 191 194 189 190 185 176 169 180 223 241 247 255 259 262 267 274 282
52 44 125 90 127 348 21 283 272 232 254 263 256 253 268 271 223 256 267 285 287 252 237 249 169 202 293 2 252 284 293 256 242 241 241 231 228 201 194 197 195 189 188 191 191 191 191 191 192 189 188 190 189 191 194 191 192 193 191 191 191 191 195 196 194 197 199 201 203 203 207 208 209 213 218 216 204 198 193 186 191 192 186 184 176 182 200 220 234 232 235 244 255 261 262 281 304
37 26 152 83 102 316 314 275 265 253 248 251 262 261 266 266 212 224 247 277 264 201 272 233 154 232 301 309 264 285 276 268 252 236 234 227 218 204 198 200 201 195 192 192 193 193 193 195 195 194 193 192 191 193 196 195 196 196 195 195 196 198 200 201 200 202 204 205 206 206 209 209 208 210 211 205 198 199 195 189 190 188 180 178 187 209 222 226 228 224 219 216 192 121 102 87 69
38 0 109 85 71 267 269 257 269 268 269 289 277 259 255 233 192 217 222 273 240 211 275 122 178 228 275 289 261 257 258 273 264 238 229 226 219 207 201 202 203 201 198 195 195 196 196 198 199 198 198 196 194 196 198 198 199 200 201 201 201 202 203 203 202 204 206 207 207 207 207 208 211 209 204 199 199 200 194 193 196 191 179 187 211 223 223 219 218 206 181 154 126 111 96 75 60
87 335 64 100 165 212 230 251 274 282 296 299 271 256 220 151 154 205 199 253 233 253 245 184 193 171 158 282 258 272 273 267 258 239 226 222 221 211 204 204 203 202 201 199 198 199 200 201 203 203 203 203 199 200 200 198 201 202 203 203 203 204 205 205 204 205 206 208 206 204 204 207 210 203 198 197 197 196 195 202 209 205 200 209 221 219 211 207 196 173 157 141 123 109 89 63 46
125 150 90 146 192 174 186 241 273 306 308 267 239 249 130 146 185 205 176 227 203 292 255 203 164 85 220 262 280 300 283 257 247 228 221 219 220 211 205 205 204 203 201 202 202 202 204 204 206 206 206 207 204 205 205 202 203 203 204 204 203 205 205 205 206 204 204 205 202 199 200 202 201 196 195 197 196 195 200 209 211 210 210 213 212 204 197 188 174 163 154 145 133 115 98 71 47
141 149 116 167 206 127 177 267 291 322 287 257 257 275 150 204 209 184 147 285 241 203 250 195 144 144 253 273 305 300 257 251 238 220 217 215 217 211 207 206 206 205 203 204 206 206 207 207 208 209 209 209 208 208 208 206 204 204 206 205 202 204 205 204 206 202 200 200 198 197 198 200 197 194 195 194 194 196 203 209 206 204 202 200 197 191 184 174 167 161 155 151 143 130 115 96 67
134 135 93 125 35 342 203 247 200 131 258 254 263 332 336 256 163 146 183 228 257 205 185 177 159 200 205 201 261 252 229 268 230 214 213 212 213 210 208 207 207 207 206 207 208 209 209 210 211 212 213 211 211 211 210 208 205 204 206 204 201 203 205 202 203 201 198 198 197 198 199 200 197 193 193 193 193 197 203 203 197 193 190 189 188 182 175 169 165 162 159 154 144 137 126 115 100
115 114 71 89 206 280 219 212 134 130 253 245 264 32 342 282 154 184 228 188 282 269 149 203 190 224 177 191 239 227 247 283 221 210 209 209 208 206 208 208 209 209 209 210 210 211 211 212 213 213 215 214 213 213 213 209 205 205 204 203 202 203 203 200 200 200 200 199 198 200 202 203 199 195 194 195 197 200 200 195 188 187 186 186 183 177 172 169 166 163 159 154 148 143 140 152 176
86 89 81 284 198 213 202 196 188 186 255 268 295 43 62 297 247 234 248 135 270 268 210 233 217 220 206 216 245 251 275 269 217 210 204 205 205 203 208 209 210 211 211 212 212 213 213 214 214 215 215 214 214 214 214 211 207 207 205 202 202 202 200 200 202 202 201 201 201 202 205 205 203 199 197 200 203 202 198 191 187 186 187 185 181 177 174 172 169 164 160 157 158 162 175 195 217
78 96 135 220 197 205 187 190 200 192 257 265 277 167 176 297 297 283 327 309 281 279 255 250 270 253 239 248 259 263 265 247 218 208 201 201 202 203 210 211 211 214 214 214 214 214 214 215 215 215 215 215 215 214 215 212 208 208 206 202 201 202 200 201 203 203 202 202 203 204 207 208 206 203 202 205 205 202 197 191 188 187 188 185 182 180 177 175 171 168 168 168 173 182 195 208 224
110 123 157 227 205 212 194 187 195 211 243 255 273 242 209 265 282 9 288 285 307 295 275 229 253 261 254 254 252 251 247 235 220 210 206 204 205 207 212 213 213 216 217 217 217 216 215 216 216 216 216 215 215 215 214 213 210 210 208 204 202 203 202 203 205 205 204 204 206 207 209 209 208 207 207 208 206 201 195 192 189 187 188 187 185 183 180 179 177 176 176 179 186 190 199 211 221
175 131 201 240 217 227 227 209 208 224 245 291 288 282 234 247 242 60 264 288 287 262 268 249 245 257 257 253 242 237 233 230 222 214 215 215 215 215 215 215 215 220 221 221 219 217 216 216 217 217 217 216 216 215 214 214 212 212 211 207 205 205 204 205 206 207 207 206 208 210 211 211 210 209 209 208 205 200 195 193 191 191 191 190 190 188 185 183 182 182 184 186 190 192 198 203 209
177 150 208 232 198 231 238 219 223 233 230 253 282 322 295 264 185 194 171 303 286 255 245 238 248 254 252 257 235 219 218 223 221 219 222 223 225 223 223 223 224 227 226 224 222 220 219 218 218 217 217 217 217 217 216 215 213 213 212 209 207 207 206 206 207 209 210 210 210 212 212 212 211 209 209 207 204 201 198 197 197 196 194 194 193 191 188 185 185 187 189 189 188 189 192 194 199
172 207 227 223 169 236 244 214 225 218 156 230 281 304 286 292 186 197 167 236 266 264 239 220 242 247 247 259 225 202 209 220 220 221 225 228 230 228 229 230 230 231 228 227 227 225 222 220 219 218 218 218 218 219 218 217 215 214 213 211 209 208 208 208 209 210 212 213 213 213 213 212 211 210 209 207 204 203 202 201 200 198 196 195 193 189 188 187 188 190 189 188 186 185 187 189 192
239 246 254 247 204 232 250 197 203 173 144 219 244 284 303 16 296 211 178 224 247 263 261 233 252 245 246 262 202 196 212 218 220 222 225 228 231 230 231 232 231 231 230 233 231 228 225 222 220 219 220 219 219 219 219 219 217 217 216 214 212 211 210 210 211 213 214 215 215 215 214 213 211 209 208 207 205 204 204 203 201 198 196 195 191 189 191 191 191 191 189 186 183 183 184 186 186
254 260 260 258 226 229 245 204 191 186 207 237 251 313 295 273 287 241 201 234 244 262 273 265 268 262 253 257 233 227 223 221 228 230 229 231 236 237 236 235 234 232 232 235 232 229 228 225 222 220 221 220 219 219 218 219 219 219 219 217 216 214 213 213 214 215 215 216 217 217 216 215 212 210 208 207 206 205 205 204 201 199 196 194 193 191 193 195 193 191 187 183 181 182 182 183 182
220 237 246 257 247 242 259 254 240 244 238 244 289 289 270 247 254 276 256 253 252 261 275 271 271 275 256 249 250 247 237 235 238 238 235 236 240 243 242 239 235 232 233 235 232 231 231 228 224 222 222 221 220 219 219 220 220 220 219 218 218 217 216 216 216 216 217 217 217 218 217 216 214 212 210 208 207 207 206 204 201 199 197 195 195 194 194 197 195 189 185 183 182 182 181 181 178
214 224 252 272 278 276 288 269 236 249 241 183 211 260 267 254 205 266 260 258 266 265 271 274 276 276 260 250 252 249 246 244 244 242 239 240 241 241 243 240 232 233 236 235 232 233 232 228 226 225 223 222 220 220 220 221 221 220 220 220 219 218 218 217 217 218 218 219 218 218 218 217 216 214 212 209 208 208 206 204 202 200 198 196 197 196 195 196 196 190 185 183 182 182 181 178 176
190 207 272 263 275 285 267 266 244 248 254 178 197 253 267 310 115 266 260 239 261 270 274 278 270 268 264 259 255 251 249 249 249 247 245 244 235 234 240 237 231 236 237 233 234 234 230 228 229 227 224 222 220 220 221 221 221 221 221 220 220 220 219 218 218 219 219 220 220 220 219 218 217 216 215 212 210 209 207 204 202 200 200 198 198 198 197 195 194 191 186 184 183 181 179 177 177
129 128 299 277 294 297 226 253 261 235 261 192 191 252 277 347 162 254 263 246 258 274 281 283 270 263 268 270 270 261 248 254 256 246 239 240 233 232 235 233 233 236 235 234 235 232 228 229 229 227 224 221 220 221 221 221 222 222 221 220 221 221 220 219 219 219 219 220 221 221 220 218 217 216 216 215 212 211 209 206 204 202 201 200 199 199 198 195 192 190 187 184 184 180 179 178 176
36 67 312 290 328 309 240 242 257 183 221 185 165 262 285 251 225 250 265 275 283 277 276 281 275 268 272 277 279 272 259 260 257 239 237 242 242 238 238 240 238 236 237 238 235 231 231 230 227 226 224 222 222 222 222 222 222 222 221 221 221 221 220 220 219 220 220 220 221 220 220 219 217 217 216 216 215 213 211 209 207 204 203 202 200 199 199 198 193 190 187 185 183 180 179 178 176
290 76 303 297 334 306 261 219 68 141 201 172 151 269 273 251 246 257 270 275 282 281 269 274 280 278 276 274 279 277 269 262 250 243 245 248 249 246 246 249 245 241 241 238 235 234 234 230 226 225 224 223 223 223 221 221 222 221 221 222 221 221 220 220 221 221 220 220 220 220 219 218 218 217 216 216 215 214 213 211 208 206 204 202 202 200 200 199 194 190 188 185 182 180 180 178 178
295 307 162 310 293 284 292 174 115 301 224 153 158 253 262 267 266 265 283 20 271 275 273 274 282 284 280 271 272 275 272 263 257 257 256 256 256 253 254 254 250 247 244 237 238 239 235 230 227 225 223 224 222 222 221 220 221 220 221 221 221 221 221 221 221 221 220 220 220 220 219 218 217 217 216 216 215 214 213 211 210 207 205 203 202 202 201 198 193 190 188 185 182 181 181 178 181
0 286 270 278 211 265 304 268 189 239 272 125 164 235 259 265 271 272 300 27 43 266 275 275 275 278 281 278 269 271 274 271 270 268 264 261 259 258 260 261 256 252 247 241 241 239 235 232 228 226 223 223 222 222 221 220 220 220 220 220 221 221 221 221 221 221 221 220 220 220 219 218 217 217 216 216 215 214 213 212 210 208 206 205 203 202 201 197 192 190 189 187 186 183 183 182 183
338 228 245 247 230 270 313 288 234 215 213 175 211 236 268 262 268 276 293 312 291 279 278 276 273 273 276 279 275 272 276 281 280 272 267 265 264 263 263 264 262 258 253 246 242 238 235 233 229 227 225 225 223 221 220 219 219 218 219 219 219 220 220 221 221 220 220 220 220 220 219 218 217 217 216 216 216 215 213 212 211 208 207 205 203 202 200 197 193 191 189 188 189 188 188 186 182
279 230 238 244 239 259 299 291 295 235 168 205 225 234 253 262 274 285 290 289 285 282 280 276 272 273 273 276 280 276 273 279 276 273 281 289 276 271 269 268 265 261 257 250 245 241 238 234 230 229 227 225 223 220 219 218 217 217 218 218 219 220 221 221 221 221 221 220 221 220 219 218 218 218 217 216 216 215 214 212 211 209 207 205 204 202 200 197 194 193 191 189 190 190 191 189 182
257 255 262 281 256 246 265 269 295 310 254 230 230 243 252 265 275 280 280 276 266 266 273 277 275 275 275 277 278 275 272 268 267 278 305 309 286 280 276 272 267 261 258 252 247 244 239 234 231 229 226 223 222 220 217 215 215 215 216 217 218 220 221 220 220 221 221 221 221 220 220 219 219 218 217 217 216 215 214 212 211 209 207 205 203 202 200 198 195 194 193 191 190 189 192 190 180
253 244 239 268 279 254 247 254 259 281 282 274 265 264 266 271 274 276 277 276 262 256 266 281 281 277 276 271 267 270 272 269 273 296 313 302 290 287 281 276 270 263 258 253 247 241 236 232 229 227 224 221 219 215 211 210 210 211 212 213 216 218 219 219 220 221 221 221 221 220 220 219 219 219 218 218 217 216 214 212 211 208 207 206 204 203 201 200 197 194 193 192 191 188 189 186 178
261 252 254 260 277 274 262 267 266 247 279 274 262 273 282 279 277 277 276 276 271 267 270 274 276 278 271 264 264 272 278 279 291 311 309 300 297 295 288 281 272 265 258 251 244 238 235 231 227 224 221 218 214 211 208 207 206 206 207 210 214 216 216 216 218 219 220 221 221 220 220 219 219 219 218 217 217 216 214 212 210 207 207 207 207 207 204 202 199 196 194 193 193 190 185 182 177
267 259 276 280 261 269 270 273 278 274 254 265 258 275 287 287 281 271 268 272 275 276 272 263 267 269 265 268 281 286 287 290 305 312 304 303 304 300 295 286 271 263 259 252 245 241 236 230 227 223 219 215 213 212 209 208 208 207 208 211 214 213 213 214 216 218 218 219 219 218 218 218 218 218 218 217 216 216 214 212 210 209 209 208 208 207 205 203 199 197 195 191 192 190 187 183 175
265 266 293 292 265 276 278 270 294 346 234 273 284 286 283 275 272 268 265 262 266 272 262 251 253 261 272 291 303 296 297 302 309 307 303 307 308 307 301 289 275 265 262 256 250 246 237 229 226 222 218 215 214 212 210 210 211 210 211 214 214 212 214 216 216 217 217 216 217 217 217 217 217 217 217 217 215 215 214 213 212 211 210 209 207 205 205 204 200 198 196 193 190 188 188 186 180
240 248 282 275 266 286 276 272 326 345 261 274 297 294 277 266 271 274 269 253 253 265 258 251 250 262 283 294 291 290 299 305 308 305 306 316 323 324 310 293 285 274 265 259 253 247 239 232 227 222 220 217 214 212 211 211 210 210 212 217 217 214 217 217 216 219 218 216 216 216 216 216 217 217 217 216 215 216 216 215 214 212 211 210 208 206 205 204 202 200 198 195 191 187 186 186 188
236 218 230 256 262 254 249 277 350 330 295 311 318 306 280 270 304 297 285 280 259 256 255 265 295 266 269 282 282 284 290 291 298 302 307 317 324 320 307 296 290 279 270 267 261 252 245 239 232 225 221 217 214 212 210 208 207 206 207 211 212 210 213 212 211 216 217 215 216 215 215 216 216 217 217 217 218 218 218 217 216 214 212 210 209 209 207 206 204 202 199 197 195 193 189 185 191
290 229 221 241 256 257 262 303 4 352 325 359 5 337 283 195 72 260 296 319 272 258 270 309 326 285 261 274 282 292 294 275 278 290 301 314 317 313 309 307 301 288 283 281 274 265 254 246 238 229 222 218 214 211 208 205 204 202 199 198 197 197 202 205 207 211 211 212 214 215 215 216 216 217 217 218 218 218 218 217 216 215 212 210 209 210 209 207 205 203 201 199 199 199 194 187 189
287 248 220 232 249 263 274 303 355 356 275 311 41 14 274 269 185 238 261 266 266 277 331 326 301 300 293 280 294 314 312 310 307 301 309 316 314 317 317 316 314 309 305 299 290 282 267 251 241 232 225 220 215 211 207 205 203 201 200 199 198 198 202 208 212 214 214 213 214 215 215 216 216 216 217 217 217 217 217 217 216 215 214 212 210 209 209 209 208 206 204 202 201 200 198 194 192
240 248 170 181 223 239 236 230 225 230 277 313 3 147 276 286 215 234 252 243 270 296 308 302 299 305 301 297 323 322 310 328 330 321 330 330 328 333 323 319 331 335 328 317 305 297 281 259 243 234 227 221 217 212 208 205 204 203 203 203 204 206 208 213 215 215 217 215 213 215 215 215 215 215 216 216 216 217 217 216 216 215 214 213 211 211 211 211 210 208 205 204 203 202 202 203 200
240 216 122 127 162 184 163 141 186 268 343 312 285 151 266 280 237 252 290 249 278 296 286 297 318 319 321 331 334 328 328 347 345 329 334 342 339 332 326 340 357 357 347 335 325 315 297 270 247 234 228 222 218 214 210 208 207 206 206 206 208 212 213 215 216 214 215 214 213 215 215 215 214 213 215 216 215 216 217 217 216 215 215 214 213 213 214 213 212 210 207 205 205 204 205 209 209
214 141 95 67 70 77 85 117 143 30 331 260 213 173 245 284 255 158 52 231 245 264 272 295 313 315 329 339 330 338 355 356 349 335 340 357 348 340 353 8 9 6 358 349 341 334 323 296 261 241 231 225 221 217 213 211 209 209 209 209 211 213 212 213 214 213 213 213 212 213 215 215 214 213 214 215 215 216 216 216 216 216 216 217 215 215 214 213 213 213 211 208 207 207 206 208 212
122 100 58 33 31 32 41 34 77 58 291 252 199 181 199 286 286 179 188 213 203 238 301 308 316 322 330 339 334 345 355 345 342 349 1 10 3 2 13 17 10 6 5 0 354 348 341 322 287 259 241 232 226 221 217 215 213 212 213 213 214 214 211 209 209 208 208 208 209 211 213 215 216 215 214 214 215 215 215 216 217 217 218 218 217 216 215 215 215 214 213 211 209 208 208 208 210
103 84 56 25 344 5 23 355 38 116 262 265 205 176 177 242 263 217 246 264 225 225 286 299 309 315 317 335 350 354 355 351 0 8 8 10 7 7 14 15 9 6 5 3 1 357 350 339 315 282 258 243 235 228 224 221 218 216 218 218 217 216 214 212 210 209 208 207 207 208 209 212 214 215 214 214 214 214 214 214 215 216 217 218 218 218 218 217 217 216 214 212 211 209 208 208 208
112 105 93 41 321 351 354 307 45 206 253 277 188 155 193 244 254 257 272 282 281 265 233 245 261 277 304 344 2 2 8 13 14 14 11 12 10 7 11 13 9 6 4 5 6 3 359 354 342 318 291 265 247 239 234 229 226 224 223 223 222 221 219 218 218 216 214 212 209 207 207 208 209 211 213 215 215 215 214 215 215 216 217 219 219 218 218 217 217 216 215 213 212 211 209 208 209
155 151 150 146 177 229 277 263 265 269 267 288 101 144 277 276 272 249 249 265 281 284 227 226 235 275 330 358 17 18 21 23 19 16 16 15 12 10 15 16 13 9 9 12 12 9 6 4 0 350 329 297 265 250 242 238 236 234 232 232 230 227 225 225 224 223 222 219 214 212 211 210 211 212 214 216 217 216 216 217 218 217 218 218 218 217 217 217 216 216 216 215 213 212 211 209 210
174 163 155 152 160 204 239 229 249 271 274 294 345 167 221 253 265 234 232 248 266 273 267 283 29 26 11 19 28 28 24 22 20 19 18 13 10 12 16 18 17 14 15 20 20 15 10 9 8 2 349 329 299 270 254 248 245 242 241 241 240 237 235 234 232 230 228 226 222 219 218 217 217 218 218 218 217 216 216 217 216 217 217 216 216 216 216 216 216 215 215 215 214 213 212 211 210
209 128 117 178 181 190 237 245 234 250 274 265 223 230 224 238 289 290 279 285 311 340 359 40 45 37 41 35 26 23 20 17 18 17 14 9 10 13 14 15 15 14 16 20 22 19 16 14 14 10 0 348 329 303 278 264 257 253 249 247 246 244 242 241 240 238 235 233 230 226 226 225 224 223 221 219 217 216 216 215 215 217 217 217 217 216 216 215 215 215 215 215 215 213 212 211 211
172 123 177 226 168 156 236 279 254 202 258 242 217 252 268 288 292 290 297 318 356 27 39 52 45 37 42 35 23 19 14 13 14 12 12 9 9 12 13 14 13 13 15 17 19 20 19 19 19 17 12 5 353 335 312 292 277 267 261 256 252 249 246 244 244 243 241 239 237 234 232 231 229 227 225 222 220 219 217 216 216 216 216 217 217 216 216 216 215 215 215 215 214 213 212 211 211
132 171 218 214 88 109 156 282 338 259 251 241 218 245 265 284 279 286 311 334 12 39 46 47 39 38 38 29 22 18 10 9 8 7 10 10 10 12 13 13 13 14 15 15 15 16 18 20 20 19 17 14 8 358 341 321 302 286 276 268 261 257 252 249 246 245 244 242 240 238 236 235 233 231 229 227 224 222 220 218 217 217 217 217 217 217 217 216 216 216 215 215 215 213 211 211 211
137 204 236 124 160 243 179 172 232 250 253 257 221 232 246 249 255 280 307 343 31 43 47 46 40 39 34 23 19 14 10 11 9 8 6 5 10 12 13 13 13 14 14 14 13 13 14 16 16 17 16 15 14 11 2 349 330 307 293 282 274 267 262 257 252 249 246 243 242 240 238 237 236 235 232 230 227 225 223 220 218 218 218 217 217 217 216 216 215 215 215 214 214 212 211 210 209
46 329 312 54 177 206 200 185 176 232 251 258 233 224 220 224 237 260 342 47 54 46 51 53 48 47 39 26 17 9 13 14 9 8 4 3 8 10 14 14 12 14 14 13 12 11 12 12 11 11 11 11 12 12 9 3 353 335 314 299 288 279 272 266 260 254 250 247 244 242 240 238 237 236 234 232 230 228 225 222 220 218 218 217 217 216 216 215 215 215 214 213 212 211 211 210 209
126 193 258 244 215 225 251 234 185 219 249 254 254 249 231 236 241 105 98 81 67 68 69 60 46 44 35 24 19 11 12 13 7 6 3 1 4 6 9 11 11 13 14 14 13 11 10 10 9 8 7 7 7 7 6 4 0 353 337 320 305 293 282 274 268 262 257 253 250 246 243 241 239 237 235 233 232 230 228 225 222 220 219 218 217 216 215 215 214 214 214 213 212 210 209 209 208
181 190 209 215 220 229 261 250 215 212 234 236 258 265 249 243 67 98 111 102 85 81 80 69 46 34 28 22 19 14 13 10 5 2 0 359 0 3 6 9 11 12 12 11 10 9 8 8 7 7 6 6 5 3 3 2 1 358 351 339 325 309 294 282 274 268 263 260 257 253 249 245 241 238 236 234 232 230 229 227 225 223 220 219 218 217 216 215 214 214 212 211 211 209 207 207 207